Location: Marse
(42.1502°N, 110.9866°W)
Time: 20:21:51
(UTC+00:00)

ITUPSAT 1 - Pass Details

Date: 02 July 2022
Orbit: 701 x 711 km, 98.6° (Epoch: 08 August)

Event Time Altitude Azimuth Distance (km) Brightness Sun altitude
Rises 03:29:04 0° 18° (NNE) 3,109 ? -4.7°
Reaches altitude 10° 03:31:23 10° 23° (NNE) 2,188 ? -5.0°
Maximum altitude 03:36:04 53° 100° (E) 870 ? -5.7°
Drops below altitude 10° 03:40:44 10° 178° (S) 2,177 ? -6.4°
Sets 03:43:02 0° 183° (S) 3,092 ? -6.7°
